Year,Month,Day,Hour,Minute,Value (Times are PST for temperature in C)
2009,06,03,00,00,20.30
2009,06,03,00,01,20.30
2009,06,03,00,02,20.20
2009,06,03,00,03,20.20
2009,06,03,00,04,20.20
2009,06,03,00,05,20.20
2009,06,03,00,06,20.20
2009,06,03,00,07,20.20
2009,06,03,00,08,20.20
2009,06,03,00,09,20.10
2009,06,03,00,10,20.10
2009,06,03,00,11,20.10
2009,06,03,00,12,20.10
2009,06,03,00,13,20.10
2009,06,03,00,14,20.10
2009,06,03,00,15,20.10
2009,06,03,00,16,20.10
2009,06,03,00,17,20.00
2009,06,03,00,18,19.90
2009,06,03,00,19,20.00
2009,06,03,00,20,20.10
2009,06,03,00,21,20.10
2009,06,03,00,22,20.10
2009,06,03,00,23,20.10
2009,06,03,00,24,20.00
2009,06,03,00,25,19.90
2009,06,03,00,26,19.90
2009,06,03,00,27,19.90
2009,06,03,00,28,19.90
2009,06,03,00,29,19.90
2009,06,03,00,30,19.80
2009,06,03,00,31,19.80
2009,06,03,00,32,19.70
2009,06,03,00,33,19.70
2009,06,03,00,34,19.60
2009,06,03,00,35,19.60
2009,06,03,00,36,19.50
2009,06,03,00,37,19.50
2009,06,03,00,38,19.40
2009,06,03,00,39,19.40
2009,06,03,00,40,19.30
2009,06,03,00,41,19.30
2009,06,03,00,42,19.20
2009,06,03,00,43,19.10
2009,06,03,00,44,19.10
2009,06,03,00,45,19.10
2009,06,03,00,46,19.10
2009,06,03,00,47,19.00
2009,06,03,00,48,18.90
2009,06,03,00,49,18.90
2009,06,03,00,50,18.90
2009,06,03,00,51,18.90
2009,06,03,00,52,18.80
2009,06,03,00,53,18.80
2009,06,03,00,54,18.70
2009,06,03,00,55,18.70
2009,06,03,00,56,18.70
2009,06,03,00,57,18.60
2009,06,03,00,58,18.60
2009,06,03,00,59,18.60
2009,06,03,01,00,18.60
2009,06,03,01,01,18.50
2009,06,03,01,02,18.50
2009,06,03,01,03,18.50
2009,06,03,01,04,18.40
2009,06,03,01,05,18.40
2009,06,03,01,06,18.40
2009,06,03,01,07,18.30
2009,06,03,01,08,18.30
2009,06,03,01,09,18.30
2009,06,03,01,10,18.30
2009,06,03,01,11,18.20
2009,06,03,01,12,18.20
2009,06,03,01,13,18.20
2009,06,03,01,14,18.20
2009,06,03,01,15,18.20
2009,06,03,01,16,18.20
2009,06,03,01,17,18.20
2009,06,03,01,18,18.20
2009,06,03,01,19,18.20
2009,06,03,01,20,18.20
2009,06,03,01,21,18.20
2009,06,03,01,22,18.20
2009,06,03,01,23,18.20
2009,06,03,01,24,18.10
2009,06,03,01,25,18.10
2009,06,03,01,26,18.10
2009,06,03,01,27,18.10
2009,06,03,01,28,18.10
2009,06,03,01,29,18.10
2009,06,03,01,30,18.00
2009,06,03,01,31,17.90
2009,06,03,01,32,17.80
2009,06,03,01,33,17.80
2009,06,03,01,34,17.70
2009,06,03,01,35,17.70
2009,06,03,01,36,17.80
2009,06,03,01,37,17.80
2009,06,03,01,38,17.80
2009,06,03,01,39,17.80
2009,06,03,01,40,17.80
2009,06,03,01,41,17.80
2009,06,03,01,42,17.80
2009,06,03,01,43,17.80
2009,06,03,01,44,17.80
2009,06,03,01,45,17.80
2009,06,03,01,46,17.80
2009,06,03,01,47,17.80
2009,06,03,01,48,17.70
2009,06,03,01,49,17.70
2009,06,03,01,50,17.70
2009,06,03,01,51,17.70
2009,06,03,01,52,17.70
2009,06,03,01,53,17.70
2009,06,03,01,54,17.60
2009,06,03,01,55,17.60
2009,06,03,01,56,17.60
2009,06,03,01,57,17.60
2009,06,03,01,58,17.60
2009,06,03,01,59,17.60
2009,06,03,02,00,17.50
2009,06,03,02,01,17.50
2009,06,03,02,02,17.50
2009,06,03,02,03,17.40
2009,06,03,02,04,17.40
2009,06,03,02,05,17.40
2009,06,03,02,06,17.30
2009,06,03,02,07,17.30
2009,06,03,02,08,17.30
2009,06,03,02,09,17.30
2009,06,03,02,10,17.30
2009,06,03,02,11,17.30
2009,06,03,02,12,17.30
2009,06,03,02,13,17.30
2009,06,03,02,14,17.30
2009,06,03,02,15,17.20
2009,06,03,02,16,17.20
2009,06,03,02,17,17.30
2009,06,03,02,18,17.30
2009,06,03,02,19,17.30
2009,06,03,02,20,17.30
2009,06,03,02,21,17.30
2009,06,03,02,22,17.40
2009,06,03,02,23,17.40
2009,06,03,02,24,17.50
2009,06,03,02,25,17.50
2009,06,03,02,26,17.60
2009,06,03,02,27,17.70
2009,06,03,02,28,17.70
2009,06,03,02,29,17.80
2009,06,03,02,30,17.90
2009,06,03,02,31,17.90
2009,06,03,02,32,18.10
2009,06,03,02,33,18.10
2009,06,03,02,34,18.20
2009,06,03,02,35,18.20
2009,06,03,02,36,18.20
2009,06,03,02,37,18.20
2009,06,03,02,38,18.20
2009,06,03,02,39,18.20
2009,06,03,02,40,18.20
2009,06,03,02,41,18.20
2009,06,03,02,42,18.20
2009,06,03,02,43,18.10
2009,06,03,02,44,18.10
2009,06,03,02,45,18.10
2009,06,03,02,46,18.10
2009,06,03,02,47,18.00
2009,06,03,02,48,17.90
2009,06,03,02,49,17.90
2009,06,03,02,50,17.90
2009,06,03,02,51,17.90
2009,06,03,02,52,17.90
2009,06,03,02,53,17.90
2009,06,03,02,54,17.80
2009,06,03,02,55,17.70
2009,06,03,02,56,17.70
2009,06,03,02,57,17.60
2009,06,03,02,58,17.60
2009,06,03,02,59,17.60
2009,06,03,03,00,17.50
2009,06,03,03,01,17.50
2009,06,03,03,02,17.40
2009,06,03,03,03,17.40
2009,06,03,03,04,17.30
2009,06,03,03,05,17.30
2009,06,03,03,06,17.30
2009,06,03,03,07,17.30
2009,06,03,03,08,17.20
2009,06,03,03,09,17.20
2009,06,03,03,10,17.10
2009,06,03,03,11,17.10
2009,06,03,03,12,17.00
2009,06,03,03,13,16.90
2009,06,03,03,14,16.90
2009,06,03,03,15,16.80
2009,06,03,03,16,16.80
2009,06,03,03,17,16.80
2009,06,03,03,18,16.70
2009,06,03,03,19,16.70
2009,06,03,03,20,16.70
2009,06,03,03,21,16.70
2009,06,03,03,22,16.70
2009,06,03,03,23,16.70
2009,06,03,03,24,16.70
2009,06,03,03,25,16.60
2009,06,03,03,26,16.60
2009,06,03,03,27,16.60
2009,06,03,03,28,16.40
2009,06,03,03,29,16.40
2009,06,03,03,30,16.40
2009,06,03,03,31,16.40
2009,06,03,03,32,16.40
2009,06,03,03,33,16.40
2009,06,03,03,34,16.40
2009,06,03,03,35,16.40
2009,06,03,03,36,16.40
2009,06,03,03,37,16.40
2009,06,03,03,38,16.40
2009,06,03,03,39,16.40
2009,06,03,03,40,16.40
2009,06,03,03,41,16.40
2009,06,03,03,42,16.40
2009,06,03,03,43,16.40
2009,06,03,03,44,16.40
2009,06,03,03,45,16.40
2009,06,03,03,46,16.30
2009,06,03,03,47,16.30
2009,06,03,03,48,16.30
2009,06,03,03,49,16.30
2009,06,03,03,50,16.30
2009,06,03,03,51,16.30
2009,06,03,03,52,16.30
2009,06,03,03,53,16.20
2009,06,03,03,54,16.20
2009,06,03,03,55,16.20
2009,06,03,03,56,16.20
2009,06,03,03,57,16.10
2009,06,03,03,58,16.10
2009,06,03,03,59,16.10
2009,06,03,04,00,16.20
2009,06,03,04,01,16.20
2009,06,03,04,02,16.20
2009,06,03,04,03,16.20
2009,06,03,04,04,16.20
2009,06,03,04,05,16.20
2009,06,03,04,06,16.10
2009,06,03,04,07,16.10
2009,06,03,04,08,16.10
2009,06,03,04,09,16.10
2009,06,03,04,10,16.10
2009,06,03,04,11,16.10
2009,06,03,04,12,16.10
2009,06,03,04,13,16.10
2009,06,03,04,14,16.00
2009,06,03,04,15,15.90
2009,06,03,04,16,15.90
2009,06,03,04,17,15.90
2009,06,03,04,18,15.90
2009,06,03,04,19,15.90
2009,06,03,04,20,15.90
2009,06,03,04,21,15.90
2009,06,03,04,22,15.90
2009,06,03,04,23,15.90
2009,06,03,04,24,15.90
2009,06,03,04,25,15.90
2009,06,03,04,26,15.90
2009,06,03,04,27,15.90
2009,06,03,04,28,15.90
2009,06,03,04,29,15.90
2009,06,03,04,30,15.90
2009,06,03,04,31,15.90
2009,06,03,04,32,15.80
2009,06,03,04,33,15.80
2009,06,03,04,34,15.80
2009,06,03,04,35,15.80
2009,06,03,04,36,15.80
2009,06,03,04,37,15.80
2009,06,03,04,38,15.80
2009,06,03,04,39,15.80
2009,06,03,04,40,15.80
2009,06,03,04,41,15.80
2009,06,03,04,42,15.70
2009,06,03,04,43,15.70
2009,06,03,04,44,15.70
2009,06,03,04,45,15.70
2009,06,03,04,46,15.60
2009,06,03,04,47,15.60
2009,06,03,04,48,15.60
2009,06,03,04,49,15.50
2009,06,03,04,50,15.50
2009,06,03,04,51,15.50
2009,06,03,04,52,15.50
2009,06,03,04,53,15.40
2009,06,03,04,54,15.40
2009,06,03,04,55,15.40
2009,06,03,04,56,15.30
2009,06,03,04,57,15.30
2009,06,03,04,58,15.30
2009,06,03,04,59,15.20
2009,06,03,05,00,15.20
2009,06,03,05,01,15.20
2009,06,03,05,02,15.10
2009,06,03,05,03,15.10
2009,06,03,05,04,15.10
2009,06,03,05,05,15.10
2009,06,03,05,06,15.10
2009,06,03,05,07,15.00
2009,06,03,05,08,15.00
2009,06,03,05,09,15.00
2009,06,03,05,10,14.90
2009,06,03,05,11,14.90
2009,06,03,05,12,14.80
2009,06,03,05,13,14.80
2009,06,03,05,14,14.80
2009,06,03,05,15,14.80
2009,06,03,05,16,14.80
2009,06,03,05,17,14.80
2009,06,03,05,18,14.80
2009,06,03,05,19,14.70
2009,06,03,05,20,14.70
2009,06,03,05,21,14.70
2009,06,03,05,22,14.70
2009,06,03,05,23,14.60
2009,06,03,05,24,14.60
2009,06,03,05,25,14.60
2009,06,03,05,26,14.50
2009,06,03,05,27,14.50
2009,06,03,05,28,14.50
2009,06,03,05,29,14.50
2009,06,03,05,30,14.50
2009,06,03,05,31,14.50
2009,06,03,05,32,14.50
2009,06,03,05,33,14.50
2009,06,03,05,34,14.50
2009,06,03,05,35,14.50
2009,06,03,05,36,14.50
2009,06,03,05,37,14.50
2009,06,03,05,38,14.50
2009,06,03,05,39,14.60
2009,06,03,05,40,14.70
2009,06,03,05,41,14.70
2009,06,03,05,42,14.80
2009,06,03,05,43,14.80
2009,06,03,05,44,14.80
2009,06,03,05,45,14.90
2009,06,03,05,46,14.90
2009,06,03,05,47,14.90
2009,06,03,05,48,14.90
2009,06,03,05,49,15.00
2009,06,03,05,50,15.00
2009,06,03,05,51,15.00
2009,06,03,05,52,15.00
2009,06,03,05,53,15.00
2009,06,03,05,54,15.00
2009,06,03,05,55,15.00
2009,06,03,05,56,15.00
2009,06,03,05,57,15.00
2009,06,03,05,58,15.10
2009,06,03,05,59,15.10
2009,06,03,06,00,15.20
2009,06,03,06,01,15.30
2009,06,03,06,02,15.30
2009,06,03,06,03,15.50
2009,06,03,06,04,15.60
2009,06,03,06,05,15.70
2009,06,03,06,06,15.80
2009,06,03,06,07,15.90
2009,06,03,06,08,16.10
2009,06,03,06,09,16.20
2009,06,03,06,10,16.30
2009,06,03,06,11,16.40
2009,06,03,06,12,16.40
2009,06,03,06,13,16.40
2009,06,03,06,14,16.50
2009,06,03,06,15,16.60
2009,06,03,06,16,16.60
2009,06,03,06,17,16.70
2009,06,03,06,18,16.70
2009,06,03,06,19,16.70
2009,06,03,06,20,16.80
2009,06,03,06,21,16.90
2009,06,03,06,22,16.90
2009,06,03,06,23,17.00
2009,06,03,06,24,17.10
2009,06,03,06,25,17.20
2009,06,03,06,26,17.30
2009,06,03,06,27,17.30
2009,06,03,06,28,17.40
2009,06,03,06,29,17.40
2009,06,03,06,30,17.40
2009,06,03,06,31,17.30
2009,06,03,06,32,17.30
2009,06,03,06,33,17.30
2009,06,03,06,34,17.30
2009,06,03,06,35,17.20
2009,06,03,06,36,17.20
2009,06,03,06,37,17.20
2009,06,03,06,38,17.10
2009,06,03,06,39,17.10
2009,06,03,06,40,17.10
2009,06,03,06,41,17.10
2009,06,03,06,42,17.10
2009,06,03,06,43,17.10
2009,06,03,06,44,17.20
2009,06,03,06,45,17.20
2009,06,03,06,46,17.20
2009,06,03,06,47,17.20
2009,06,03,06,48,17.20
2009,06,03,06,49,17.20
2009,06,03,06,50,17.20
2009,06,03,06,51,17.20
2009,06,03,06,52,17.20
2009,06,03,06,53,17.20
2009,06,03,06,54,17.20
2009,06,03,06,55,17.20
2009,06,03,06,56,17.30
2009,06,03,06,57,17.30
2009,06,03,06,58,17.30
2009,06,03,06,59,17.40
2009,06,03,07,00,17.40
2009,06,03,07,01,17.50
2009,06,03,07,02,17.50
2009,06,03,07,03,17.60
2009,06,03,07,04,17.60
2009,06,03,07,05,17.70
2009,06,03,07,06,17.80
2009,06,03,07,07,17.90
2009,06,03,07,08,17.90
2009,06,03,07,09,17.90
2009,06,03,07,10,18.10
2009,06,03,07,11,18.10
2009,06,03,07,12,18.20
2009,06,03,07,13,18.20
2009,06,03,07,14,18.30
2009,06,03,07,15,18.30
2009,06,03,07,16,18.40
2009,06,03,07,17,18.40
2009,06,03,07,18,18.50
2009,06,03,07,19,18.60
2009,06,03,07,20,18.60
2009,06,03,07,21,18.70
2009,06,03,07,22,18.70
2009,06,03,07,23,18.80
2009,06,03,07,24,18.90
2009,06,03,07,25,18.90
2009,06,03,07,26,18.90
2009,06,03,07,27,19.00
2009,06,03,07,28,19.10
2009,06,03,07,29,19.10
2009,06,03,07,30,19.20
2009,06,03,07,31,19.20
2009,06,03,07,32,19.30
2009,06,03,07,33,19.40
2009,06,03,07,34,19.40
2009,06,03,07,35,19.40
2009,06,03,07,36,19.50
2009,06,03,07,37,19.50
2009,06,03,07,38,19.60
2009,06,03,07,39,19.60
2009,06,03,07,40,19.70
2009,06,03,07,41,19.80
2009,06,03,07,42,19.80
2009,06,03,07,43,19.80
2009,06,03,07,44,19.90
2009,06,03,07,45,19.90
2009,06,03,07,46,20.00
2009,06,03,07,47,20.10
2009,06,03,07,48,20.20
2009,06,03,07,49,20.20
2009,06,03,07,50,20.30
2009,06,03,07,51,20.40
2009,06,03,07,52,20.50
2009,06,03,07,53,20.50
2009,06,03,07,54,20.60
2009,06,03,07,55,20.70
2009,06,03,07,56,20.70
2009,06,03,07,57,20.80
2009,06,03,07,58,20.90
2009,06,03,07,59,21.00
2009,06,03,08,00,21.00
2009,06,03,08,01,21.10
2009,06,03,08,02,21.20
2009,06,03,08,03,21.20
2009,06,03,08,04,21.30
2009,06,03,08,05,21.30
2009,06,03,08,06,21.30
2009,06,03,08,07,21.40
2009,06,03,08,08,21.40
2009,06,03,08,09,21.40
2009,06,03,08,10,21.40
2009,06,03,08,11,21.40
2009,06,03,08,12,21.40
2009,06,03,08,13,21.30
2009,06,03,08,14,21.10
2009,06,03,08,15,21.00
2009,06,03,08,16,20.80
2009,06,03,08,17,20.70
2009,06,03,08,18,20.50
2009,06,03,08,19,20.40
2009,06,03,08,20,20.30
2009,06,03,08,21,20.30
2009,06,03,08,22,20.20
2009,06,03,08,23,20.20
2009,06,03,08,24,20.20
2009,06,03,08,25,20.30
2009,06,03,08,26,20.30
2009,06,03,08,27,20.30
2009,06,03,08,28,20.30
2009,06,03,08,29,20.30
2009,06,03,08,30,20.30
2009,06,03,08,31,20.30
2009,06,03,08,32,20.30
2009,06,03,08,33,20.40
2009,06,03,08,34,20.40
2009,06,03,08,35,20.40
2009,06,03,08,36,20.50
2009,06,03,08,37,20.50
2009,06,03,08,38,20.60
2009,06,03,08,39,20.70
2009,06,03,08,40,20.80
2009,06,03,08,41,20.90
2009,06,03,08,42,21.00
2009,06,03,08,43,21.00
2009,06,03,08,44,21.10
2009,06,03,08,45,21.20
2009,06,03,08,46,21.30
2009,06,03,08,47,21.30
2009,06,03,08,48,21.40
2009,06,03,08,49,21.50
2009,06,03,08,50,21.60
2009,06,03,08,51,21.60
2009,06,03,08,52,21.70
2009,06,03,08,53,21.80
2009,06,03,08,54,21.80
2009,06,03,08,55,21.90
2009,06,03,08,56,21.90
2009,06,03,08,57,21.90
2009,06,03,08,58,22.00
2009,06,03,08,59,22.00
2009,06,03,09,00,22.10
2009,06,03,09,01,22.20
2009,06,03,09,02,22.20
2009,06,03,09,03,22.30
2009,06,03,09,04,22.40
2009,06,03,09,05,22.40
2009,06,03,09,06,22.50
2009,06,03,09,07,22.50
2009,06,03,09,08,22.60
2009,06,03,09,09,22.60
2009,06,03,09,10,22.70
2009,06,03,09,11,22.90
2009,06,03,09,12,22.90
2009,06,03,09,13,22.90
2009,06,03,09,14,22.90
2009,06,03,09,15,22.90
2009,06,03,09,16,22.90
2009,06,03,09,17,22.90
2009,06,03,09,18,22.90
2009,06,03,09,19,22.90
2009,06,03,09,20,22.90
2009,06,03,09,21,23.00
2009,06,03,09,22,23.00
2009,06,03,09,23,22.90
2009,06,03,09,24,22.80
2009,06,03,09,25,22.80
2009,06,03,09,26,22.70
2009,06,03,09,27,22.60
2009,06,03,09,28,22.60
2009,06,03,09,29,22.50
2009,06,03,09,30,22.50
2009,06,03,09,31,22.50
2009,06,03,09,32,22.50
2009,06,03,09,33,22.60
2009,06,03,09,34,22.60
2009,06,03,09,35,22.60
2009,06,03,09,36,22.60
2009,06,03,09,37,22.70
2009,06,03,09,38,22.70
2009,06,03,09,39,22.60
2009,06,03,09,40,22.60
2009,06,03,09,41,22.50
2009,06,03,09,42,22.50
2009,06,03,09,43,22.50
2009,06,03,09,44,22.50
2009,06,03,09,45,22.60
2009,06,03,09,46,22.60
2009,06,03,09,47,22.60
2009,06,03,09,48,22.50
2009,06,03,09,49,22.40
2009,06,03,09,50,22.40
2009,06,03,09,51,22.50
2009,06,03,09,52,22.50
2009,06,03,09,53,22.60
2009,06,03,09,54,22.60
2009,06,03,09,55,22.70
2009,06,03,09,56,22.70
2009,06,03,09,57,22.80
2009,06,03,09,58,22.80
2009,06,03,09,59,22.80
2009,06,03,10,00,22.80
2009,06,03,10,01,22.80
2009,06,03,10,02,22.80
2009,06,03,10,03,22.80
2009,06,03,10,04,22.90
2009,06,03,10,05,22.90
2009,06,03,10,06,22.90
2009,06,03,10,07,22.90
2009,06,03,10,08,22.90
2009,06,03,10,09,22.90
2009,06,03,10,10,23.00
2009,06,03,10,11,23.10
2009,06,03,10,12,23.10
2009,06,03,10,13,23.10
2009,06,03,10,14,23.10
2009,06,03,10,15,23.20
2009,06,03,10,16,23.20
2009,06,03,10,17,23.30
2009,06,03,10,18,23.40
2009,06,03,10,19,23.60
2009,06,03,10,20,23.70
2009,06,03,10,21,23.90
2009,06,03,10,22,24.10
2009,06,03,10,23,24.20
2009,06,03,10,24,24.20
2009,06,03,10,25,24.20
2009,06,03,10,26,24.20
2009,06,03,10,27,24.20
2009,06,03,10,28,24.30
2009,06,03,10,29,24.30
2009,06,03,10,30,24.30
2009,06,03,10,31,24.30
2009,06,03,10,32,24.40
2009,06,03,10,33,24.40
2009,06,03,10,34,24.50
2009,06,03,10,35,24.60
2009,06,03,10,36,24.60
2009,06,03,10,37,24.60
2009,06,03,10,38,24.60
2009,06,03,10,39,24.70
2009,06,03,10,40,24.80
2009,06,03,10,41,24.90
2009,06,03,10,42,24.90
2009,06,03,10,43,25.00
2009,06,03,10,44,25.20
2009,06,03,10,45,25.20
2009,06,03,10,46,25.20
2009,06,03,10,47,25.30
2009,06,03,10,48,25.30
2009,06,03,10,49,25.30
2009,06,03,10,50,25.30
2009,06,03,10,51,25.20
2009,06,03,10,52,25.10
2009,06,03,10,53,25.10
2009,06,03,10,54,25.10
2009,06,03,10,55,25.10
2009,06,03,10,56,25.00
2009,06,03,10,57,25.00
2009,06,03,10,58,25.10
2009,06,03,10,59,25.10
2009,06,03,11,00,25.10
2009,06,03,11,01,25.20
2009,06,03,11,02,25.20
2009,06,03,11,03,25.20
2009,06,03,11,04,25.20
2009,06,03,11,05,25.30
2009,06,03,11,06,25.30
2009,06,03,11,07,25.30
2009,06,03,11,08,25.30
2009,06,03,11,09,25.20
2009,06,03,11,10,25.10
2009,06,03,11,11,25.10
2009,06,03,11,12,25.10
2009,06,03,11,13,25.10
2009,06,03,11,14,25.20
2009,06,03,11,15,25.20
2009,06,03,11,16,25.30
2009,06,03,11,17,25.30
2009,06,03,11,18,25.30
2009,06,03,11,19,25.20
2009,06,03,11,20,25.20
2009,06,03,11,21,25.20
2009,06,03,11,22,25.20
2009,06,03,11,23,25.30
2009,06,03,11,24,25.30
2009,06,03,11,25,25.30
2009,06,03,11,26,25.30
2009,06,03,11,27,25.40
2009,06,03,11,28,25.30
2009,06,03,11,29,25.20
2009,06,03,11,30,25.10
2009,06,03,11,31,24.90
2009,06,03,11,32,24.80
2009,06,03,11,33,24.70
2009,06,03,11,34,24.60
2009,06,03,11,35,24.70
2009,06,03,11,36,24.90
2009,06,03,11,37,24.90
2009,06,03,11,38,24.90
2009,06,03,11,39,25.00
2009,06,03,11,40,24.90
2009,06,03,11,41,24.70
2009,06,03,11,42,24.50
2009,06,03,11,43,24.50
2009,06,03,11,44,24.50
2009,06,03,11,45,24.50
2009,06,03,11,46,24.40
2009,06,03,11,47,24.40
2009,06,03,11,48,24.50
2009,06,03,11,49,24.60
2009,06,03,11,50,24.70
2009,06,03,11,51,24.90
2009,06,03,11,52,25.00
2009,06,03,11,53,25.20
2009,06,03,11,54,25.20
2009,06,03,11,55,25.20
2009,06,03,11,56,25.10
2009,06,03,11,57,25.10
2009,06,03,11,58,25.00
2009,06,03,11,59,24.90
2009,06,03,12,00,24.80
2009,06,03,12,01,24.80
2009,06,03,12,02,24.80
2009,06,03,12,03,24.60
2009,06,03,12,04,24.60
2009,06,03,12,05,24.70
2009,06,03,12,06,24.80
2009,06,03,12,07,24.90
2009,06,03,12,08,25.00
2009,06,03,12,09,25.10
2009,06,03,12,10,24.90
2009,06,03,12,11,24.70
2009,06,03,12,12,24.50
2009,06,03,12,13,24.40
2009,06,03,12,14,24.40
2009,06,03,12,15,24.40
2009,06,03,12,16,24.50
2009,06,03,12,17,24.60
2009,06,03,12,18,24.70
2009,06,03,12,19,24.70
2009,06,03,12,20,24.60
2009,06,03,12,21,24.70
2009,06,03,12,22,24.70
2009,06,03,12,23,24.80
2009,06,03,12,24,24.80
2009,06,03,12,25,25.00
2009,06,03,12,26,25.20
2009,06,03,12,27,25.20
2009,06,03,12,28,25.30
2009,06,03,12,29,25.30
2009,06,03,12,30,25.40
2009,06,03,12,31,25.40
2009,06,03,12,32,25.50
2009,06,03,12,33,25.50
2009,06,03,12,34,25.60
2009,06,03,12,35,25.60
2009,06,03,12,36,25.60
2009,06,03,12,37,25.70
2009,06,03,12,38,25.70
2009,06,03,12,39,25.50
2009,06,03,12,40,25.40
2009,06,03,12,41,25.30
2009,06,03,12,42,25.20
2009,06,03,12,43,25.20
2009,06,03,12,44,25.10
2009,06,03,12,45,25.00
2009,06,03,12,46,24.90
2009,06,03,12,47,24.90
2009,06,03,12,48,25.00
2009,06,03,12,49,25.00
2009,06,03,12,50,25.00
2009,06,03,12,51,24.80
2009,06,03,12,52,24.90
2009,06,03,12,53,25.00
2009,06,03,12,54,25.00
2009,06,03,12,55,25.10
2009,06,03,12,56,25.10
2009,06,03,12,57,25.20
2009,06,03,12,58,25.20
2009,06,03,12,59,25.10
2009,06,03,13,00,25.10
2009,06,03,13,01,25.00
2009,06,03,13,02,24.90
2009,06,03,13,03,24.80
2009,06,03,13,04,24.80
2009,06,03,13,05,24.90
2009,06,03,13,06,24.90
2009,06,03,13,07,25.00
2009,06,03,13,08,25.10
2009,06,03,13,09,25.30
2009,06,03,13,10,25.40
2009,06,03,13,11,25.50
2009,06,03,13,12,25.60
2009,06,03,13,13,25.70
2009,06,03,13,14,25.80
2009,06,03,13,15,25.90
2009,06,03,13,16,26.00
2009,06,03,13,17,25.90
2009,06,03,13,18,25.90
2009,06,03,13,19,25.90
2009,06,03,13,20,25.80
2009,06,03,13,21,25.90
2009,06,03,13,22,25.90
2009,06,03,13,23,25.90
2009,06,03,13,24,25.90
2009,06,03,13,25,25.80
2009,06,03,13,26,25.60
2009,06,03,13,27,25.60
2009,06,03,13,28,25.60
2009,06,03,13,29,25.70
2009,06,03,13,30,25.80
2009,06,03,13,31,25.90
2009,06,03,13,32,26.00
2009,06,03,13,33,26.10
2009,06,03,13,34,26.10
2009,06,03,13,35,26.30
2009,06,03,13,36,26.40
2009,06,03,13,37,26.40
2009,06,03,13,38,26.50
2009,06,03,13,39,26.60
2009,06,03,13,40,26.60
2009,06,03,13,41,26.60
2009,06,03,13,42,26.60
2009,06,03,13,43,26.70
2009,06,03,13,44,26.70
2009,06,03,13,45,26.70
2009,06,03,13,46,26.70
2009,06,03,13,47,26.80
2009,06,03,13,48,26.80
2009,06,03,13,49,26.70
2009,06,03,13,50,26.70
2009,06,03,13,51,26.70
2009,06,03,13,52,26.80
2009,06,03,13,53,26.90
2009,06,03,13,54,26.90
2009,06,03,13,55,26.90
2009,06,03,13,56,26.90
2009,06,03,13,57,26.90
2009,06,03,13,58,26.90
2009,06,03,13,59,26.90
2009,06,03,14,00,26.80
2009,06,03,14,01,26.80
2009,06,03,14,02,26.70
2009,06,03,14,03,26.70
2009,06,03,14,04,26.60
2009,06,03,14,05,26.40
2009,06,03,14,06,26.30
2009,06,03,14,07,26.20
2009,06,03,14,08,26.00
2009,06,03,14,09,25.80
2009,06,03,14,10,25.70
2009,06,03,14,11,25.60
2009,06,03,14,12,25.70
2009,06,03,14,13,25.80
2009,06,03,14,14,26.00
2009,06,03,14,15,26.10
2009,06,03,14,16,26.30
2009,06,03,14,17,26.40
2009,06,03,14,18,26.40
2009,06,03,14,19,26.40
2009,06,03,14,20,26.40
2009,06,03,14,21,26.40
2009,06,03,14,22,26.60
2009,06,03,14,23,26.70
2009,06,03,14,24,26.80
2009,06,03,14,25,26.90
2009,06,03,14,26,27.10
2009,06,03,14,27,27.30
2009,06,03,14,28,27.40
2009,06,03,14,29,27.50
2009,06,03,14,30,27.70
2009,06,03,14,31,27.70
2009,06,03,14,32,27.80
2009,06,03,14,33,27.80
2009,06,03,14,34,27.80
2009,06,03,14,35,27.60
2009,06,03,14,36,27.50
2009,06,03,14,37,27.40
2009,06,03,14,38,27.40
2009,06,03,14,39,27.40
2009,06,03,14,40,27.50
2009,06,03,14,41,27.60
2009,06,03,14,42,27.70
2009,06,03,14,43,27.90
2009,06,03,14,44,28.00
2009,06,03,14,45,28.20
2009,06,03,14,46,28.30
2009,06,03,14,47,28.40
2009,06,03,14,48,28.40
2009,06,03,14,49,28.40
2009,06,03,14,50,28.40
2009,06,03,14,51,28.30
2009,06,03,14,52,28.30
2009,06,03,14,53,28.30
2009,06,03,14,54,28.20
2009,06,03,14,55,28.30
2009,06,03,14,56,28.30
2009,06,03,14,57,28.20
2009,06,03,14,58,28.20
2009,06,03,14,59,28.20
2009,06,03,15,00,28.30
2009,06,03,15,01,28.50
2009,06,03,15,02,28.70
2009,06,03,15,03,28.70
2009,06,03,15,04,28.70
2009,06,03,15,05,28.60
2009,06,03,15,06,28.50
2009,06,03,15,07,28.40
2009,06,03,15,08,28.20
2009,06,03,15,09,28.20
2009,06,03,15,10,28.20
2009,06,03,15,11,28.20
2009,06,03,15,12,28.30
2009,06,03,15,13,28.30
2009,06,03,15,14,28.40
2009,06,03,15,15,28.50
2009,06,03,15,16,28.60
2009,06,03,15,17,28.80
2009,06,03,15,18,28.80
2009,06,03,15,19,28.60
2009,06,03,15,20,28.50
2009,06,03,15,21,28.40
2009,06,03,15,22,28.30
2009,06,03,15,23,28.30
2009,06,03,15,24,28.20
2009,06,03,15,25,28.10
2009,06,03,15,26,28.10
2009,06,03,15,27,28.10
2009,06,03,15,28,28.10
2009,06,03,15,29,28.10
2009,06,03,15,30,28.10
2009,06,03,15,31,28.10
2009,06,03,15,32,28.10
2009,06,03,15,33,28.00
2009,06,03,15,34,27.90
2009,06,03,15,35,27.70
2009,06,03,15,36,27.70
2009,06,03,15,37,27.70
2009,06,03,15,38,27.70
2009,06,03,15,39,27.70
2009,06,03,15,40,27.60
2009,06,03,15,41,27.50
2009,06,03,15,42,27.40
2009,06,03,15,43,27.40
2009,06,03,15,44,27.40
2009,06,03,15,45,27.40
2009,06,03,15,46,27.40
2009,06,03,15,47,27.40
2009,06,03,15,48,27.50
2009,06,03,15,49,27.60
2009,06,03,15,50,27.70
2009,06,03,15,51,27.80
2009,06,03,15,52,27.90
2009,06,03,15,53,28.00
2009,06,03,15,54,28.10
2009,06,03,15,55,28.20
2009,06,03,15,56,28.30
2009,06,03,15,57,28.40
2009,06,03,15,58,28.40
2009,06,03,15,59,28.40
2009,06,03,16,00,28.40
2009,06,03,16,01,28.40
2009,06,03,16,02,28.20
2009,06,03,16,03,28.20
2009,06,03,16,04,28.10
2009,06,03,16,05,28.20
2009,06,03,16,06,28.20
2009,06,03,16,07,28.20
2009,06,03,16,08,28.20
2009,06,03,16,09,28.10
2009,06,03,16,10,28.20
2009,06,03,16,11,28.20
2009,06,03,16,12,28.30
2009,06,03,16,13,28.20
2009,06,03,16,14,28.10
2009,06,03,16,15,27.90
2009,06,03,16,16,27.80
2009,06,03,16,17,27.70
2009,06,03,16,18,27.60
2009,06,03,16,19,27.60
2009,06,03,16,20,27.60
2009,06,03,16,21,27.60
2009,06,03,16,22,27.70
2009,06,03,16,23,27.80
2009,06,03,16,24,27.80
2009,06,03,16,25,27.60
2009,06,03,16,26,27.40
2009,06,03,16,27,27.30
2009,06,03,16,28,27.20
2009,06,03,16,29,27.10
2009,06,03,16,30,27.00
2009,06,03,16,31,26.90
2009,06,03,16,32,26.80
2009,06,03,16,33,26.80
2009,06,03,16,34,26.80
2009,06,03,16,35,26.80
2009,06,03,16,36,26.70
2009,06,03,16,37,26.80
2009,06,03,16,38,26.80
2009,06,03,16,39,27.00
2009,06,03,16,40,27.10
2009,06,03,16,41,27.10
2009,06,03,16,42,27.20
2009,06,03,16,43,27.20
2009,06,03,16,44,27.20
2009,06,03,16,45,27.30
2009,06,03,16,46,27.30
2009,06,03,16,47,27.40
2009,06,03,16,48,27.50
2009,06,03,16,49,27.60
2009,06,03,16,50,27.70
2009,06,03,16,51,27.70
2009,06,03,16,52,27.60
2009,06,03,16,53,27.60
2009,06,03,16,54,27.50
2009,06,03,16,55,27.40
2009,06,03,16,56,27.40
2009,06,03,16,57,27.40
2009,06,03,16,58,27.40
2009,06,03,16,59,27.50
2009,06,03,17,00,27.60
2009,06,03,17,01,27.60
2009,06,03,17,02,27.70
2009,06,03,17,03,27.70
2009,06,03,17,04,27.80
2009,06,03,17,05,27.80
2009,06,03,17,06,27.90
2009,06,03,17,07,28.00
2009,06,03,17,08,28.00
2009,06,03,17,09,28.10
2009,06,03,17,10,28.10
2009,06,03,17,11,28.20
2009,06,03,17,12,28.20
2009,06,03,17,13,28.30
2009,06,03,17,14,28.40
2009,06,03,17,15,28.50
2009,06,03,17,16,28.60
2009,06,03,17,17,28.60
2009,06,03,17,18,28.60
2009,06,03,17,19,28.70